contact:dominique.lefevre@mio.osupytheas.fr, maurice.libes@osupytheas.fr, didier.mallarino@osupytheas.fr
Project:EMSO http://www.emso-fr.org/EMSO-France
Depth: 2436.0 m
Title:EMSO Ligure Ouest : Data MII capteur MICROCAT
DateTime_Computer,Latitude,Longitude,Temperature,Conductivity,Pressure,DateTime_Instrument
DateTime_Computer,Latitude,Longitude,degC,S m-1,dbar,DateTime_Instrument
2024-04-01T00:00:10Z,42.805,6.029,13.3050,4.60142,2471.034,2024-4-01T02:02:49Z
2024-04-01T00:03:13Z,42.805,6.029,13.3051,4.60140,2471.043,2024-4-01T02:05:52Z
2024-04-01T00:06:16Z,42.805,6.029,13.3049,4.60141,2471.057,2024-4-01T02:08:55Z
2024-04-01T00:09:19Z,42.805,6.029,13.3052,4.60139,2471.043,2024-4-01T02:11:58Z
2024-04-01T00:12:22Z,42.805,6.029,13.3051,4.60139,2470.997,2024-4-01T02:15:01Z
2024-04-01T00:15:25Z,42.805,6.029,13.3049,4.60137,2471.034,2024-4-01T02:18:04Z
2024-04-01T00:18:28Z,42.805,6.029,13.3056,4.60139,2471.034,2024-4-01T02:21:07Z
2024-04-01T00:21:31Z,42.805,6.029,13.3048,4.60140,2471.034,2024-4-01T02:24:10Z
2024-04-01T00:24:34Z,42.805,6.029,13.3054,4.60137,2471.043,2024-4-01T02:27:13Z
2024-04-01T00:27:37Z,42.805,6.029,13.3048,4.60138,2471.081,2024-4-01T02:30:16Z
2024-04-01T00:30:41Z,42.805,6.029,13.3050,4.60138,2471.043,2024-4-01T02:33:19Z
2024-04-01T00:33:44Z,42.805,6.029,13.3050,4.60140,2471.034,2024-4-01T02:36:22Z
2024-04-01T00:36:47Z,42.805,6.029,13.3046,4.60137,2471.043,2024-4-01T02:39:26Z
2024-04-01T00:39:50Z,42.805,6.029,13.3051,4.60137,2471.034,2024-4-01T02:42:29Z
2024-04-01T00:42:53Z,42.805,6.029,13.3054,4.60140,2471.043,2024-4-01T02:45:32Z
2024-04-01T00:45:56Z,42.805,6.029,13.3049,4.60140,2471.043,2024-4-01T02:48:35Z
2024-04-01T00:48:59Z,42.805,6.029,13.3051,4.60140,2471.034,2024-4-01T02:51:38Z
2024-04-01T00:52:02Z,42.805,6.029,13.3047,4.60140,2471.02,2024-4-01T02:54:41Z
2024-04-01T00:55:05Z,42.805,6.029,13.3049,4.60140,2471.057,2024-4-01T02:57:44Z
2024-04-01T00:58:08Z,42.805,6.029,13.3051,4.60139,2470.997,2024-4-01T03:00:47Z
2024-04-01T01:01:11Z,42.805,6.029,13.3053,4.60137,2471.02,2024-4-01T03:03:50Z
2024-04-01T01:04:14Z,42.805,6.029,13.3048,4.60138,2471.01,2024-4-01T03:06:53Z
2024-04-01T01:07:17Z,42.805,6.029,13.3052,4.60138,2471.02,2024-4-01T03:09:56Z
2024-04-01T01:10:20Z,42.805,6.029,13.3056,4.60138,2471.02,2024-4-01T03:12:59Z
2024-04-01T01:13:24Z,42.805,6.029,13.3056,4.60140,2471.02,2024-4-01T03:16:02Z
2024-04-01T01:16:27Z,42.805,6.029,13.3056,4.60140,2471.057,2024-4-01T03:19:06Z
2024-04-01T01:19:30Z,42.805,6.029,13.3048,4.60139,2471.034,2024-4-01T03:22:09Z
2024-04-01T01:22:33Z,42.805,6.029,13.3051,4.60140,2471.02,2024-4-01T03:25:12Z
2024-04-01T01:25:36Z,42.805,6.029,13.3050,4.60140,2470.997,2024-4-01T03:28:15Z
2024-04-01T01:28:39Z,42.805,6.029,13.3048,4.60138,2471.057,2024-4-01T03:31:18Z
2024-04-01T01:31:42Z,42.805,6.029,13.3048,4.60139,2471.034,2024-4-01T03:34:21Z
2024-04-01T01:34:45Z,42.805,6.029,13.3049,4.60139,2471.057,2024-4-01T03:37:24Z
2024-04-01T01:37:48Z,42.805,6.029,13.3054,4.60138,2471.043,2024-4-01T03:40:27Z
2024-04-01T01:40:51Z,42.805,6.029,13.3052,4.60140,2471.01,2024-4-01T03:43:30Z
2024-04-01T01:43:54Z,42.805,6.029,13.3048,4.60139,2471.034,2024-4-01T03:46:33Z
2024-04-01T01:46:57Z,42.805,6.029,13.3053,4.60137,2471.01,2024-4-01T03:49:36Z
2024-04-01T01:50:01Z,42.805,6.029,13.3054,4.60140,2471.01,2024-4-01T03:52:39Z
2024-04-01T01:53:04Z,42.805,6.029,13.3054,4.60140,2471.01,2024-4-01T03:55:42Z
2024-04-01T01:56:07Z,42.805,6.029,13.3048,4.60138,2471.057,2024-4-01T03:58:46Z
2024-04-01T01:59:10Z,42.805,6.029,13.3048,4.60138,2470.973,2024-4-01T04:01:49Z
2024-04-01T02:02:13Z,42.805,6.029,13.3049,4.60146,2471.02,2024-4-01T04:04:52Z
2024-04-01T02:05:16Z,42.805,6.029,13.3054,4.60140,2471.02,2024-4-01T04:07:55Z
2024-04-01T02:08:19Z,42.805,6.029,13.3054,4.60138,2471.02,2024-4-01T04:10:58Z
2024-04-01T02:11:22Z,42.805,6.029,13.3051,4.60140,2471.01,2024-4-01T04:14:01Z
2024-04-01T02:14:25Z,42.805,6.029,13.3049,4.60140,2471.01,2024-4-01T04:17:04Z
2024-04-01T02:17:28Z,42.805,6.029,13.3051,4.60139,2470.997,2024-4-01T04:20:07Z
2024-04-01T02:20:31Z,42.805,6.029,13.3048,4.60138,2470.997,2024-4-01T04:23:10Z
2024-04-01T02:23:34Z,42.805,6.029,13.3053,4.60137,2471.01,2024-4-01T04:26:13Z
2024-04-01T02:26:37Z,42.805,6.029,13.3048,4.60139,2470.997,2024-4-01T04:29:16Z
2024-04-01T02:29:40Z,42.805,6.029,13.3051,4.60139,2471.034,2024-4-01T04:32:19Z
2024-04-01T02:32:44Z,42.805,6.029,13.3050,4.60138,2470.987,2024-4-01T04:35:22Z
2024-04-01T02:35:47Z,42.805,6.029,13.3049,4.60137,2471.034,2024-4-01T04:38:26Z
2024-04-01T02:38:50Z,42.805,6.029,13.3053,4.60138,2471.02,2024-4-01T04:41:29Z
2024-04-01T02:41:53Z,42.805,6.029,13.3053,4.60139,2471.02,2024-4-01T04:44:32Z
2024-04-01T02:44:56Z,42.805,6.029,13.3050,4.60139,2471.057,2024-4-01T04:47:35Z
2024-04-01T02:47:59Z,42.805,6.029,13.3048,4.60138,2470.973,2024-4-01T04:50:38Z
2024-04-01T02:51:02Z,42.805,6.029,13.3051,4.60141,2471.01,2024-4-01T04:53:41Z
2024-04-01T02:54:05Z,42.805,6.029,13.3051,4.60137,2471.01,2024-4-01T04:56:44Z
2024-04-01T02:57:08Z,42.805,6.029,13.3053,4.60138,2471.01,2024-4-01T04:59:47Z
2024-04-01T03:00:11Z,42.805,6.029,13.3054,4.60141,2471.01,2024-4-01T05:02:50Z
2024-04-01T03:03:14Z,42.805,6.029,13.3049,4.60138,2470.95,2024-4-01T05:05:53Z
2024-04-01T03:06:17Z,42.805,6.029,13.3052,4.60140,2471.043,2024-4-01T05:08:56Z
2024-04-01T03:09:20Z,42.805,6.029,13.3049,4.60140,2471.02,2024-4-01T05:11:59Z
2024-04-01T03:12:24Z,42.805,6.029,13.3050,4.60138,2471.02,2024-4-01T05:15:02Z
2024-04-01T03:15:27Z,42.805,6.029,13.3052,4.60142,2471.034,2024-4-01T05:18:05Z
2024-04-01T03:18:30Z,42.805,6.029,13.3052,4.60140,2471.01,2024-4-01T05:21:09Z
2024-04-01T03:21:33Z,42.805,6.029,13.3051,4.60142,2470.997,2024-4-01T05:24:12Z
2024-04-01T03:24:36Z,42.805,6.029,13.3048,4.60140,2470.997,2024-4-01T05:27:15Z
2024-04-01T03:27:39Z,42.805,6.029,13.3051,4.60138,2470.983,2024-4-01T05:30:18Z
2024-04-01T03:30:42Z,42.805,6.029,13.3048,4.60139,2471.01,2024-4-01T05:33:21Z
2024-04-01T03:33:45Z,42.805,6.029,13.3049,4.60144,2470.997,2024-4-01T05:36:24Z
2024-04-01T03:36:48Z,42.805,6.029,13.3050,4.60138,2471.01,2024-4-01T05:39:27Z
2024-04-01T03:39:51Z,42.805,6.029,13.3051,4.60140,2471.034,2024-4-01T05:42:30Z
2024-04-01T03:42:54Z,42.805,6.029,13.3054,4.60138,2470.987,2024-4-01T05:45:33Z
2024-04-01T03:45:57Z,42.805,6.029,13.3051,4.60140,2470.997,2024-4-01T05:48:36Z
2024-04-01T03:49:00Z,42.805,6.029,13.3050,4.60140,2471.057,2024-4-01T05:51:39Z
2024-04-01T03:52:04Z,42.805,6.029,13.3051,4.60140,2470.987,2024-4-01T05:54:42Z
2024-04-01T03:55:07Z,42.805,6.029,13.3053,4.60142,2470.997,2024-4-01T05:57:46Z
2024-04-01T03:58:10Z,42.805,6.029,13.3047,4.60138,2471.034,2024-4-01T06:00:49Z
2024-04-01T04:01:13Z,42.805,6.029,13.3046,4.60138,2471.01,2024-4-01T06:03:52Z
2024-04-01T04:04:16Z,42.805,6.029,13.3051,4.60140,2470.973,2024-4-01T06:06:55Z
2024-04-01T04:07:19Z,42.805,6.029,13.3053,4.60139,2470.997,2024-4-01T06:09:58Z
2024-04-01T04:10:22Z,42.805,6.029,13.3050,4.60140,2471.01,2024-4-01T06:13:01Z
2024-04-01T04:13:25Z,42.805,6.029,13.3049,4.60139,2470.973,2024-4-01T06:16:04Z
2024-04-01T04:16:28Z,42.805,6.029,13.3051,4.60140,2470.987,2024-4-01T06:19:07Z
2024-04-01T04:19:31Z,42.805,6.029,13.3050,4.60140,2470.987,2024-4-01T06:22:10Z
2024-04-01T04:22:34Z,42.805,6.029,13.3052,4.60140,2470.973,2024-4-01T06:25:13Z
2024-04-01T04:25:37Z,42.805,6.029,13.3054,4.60139,2470.987,2024-4-01T06:28:16Z
2024-04-01T04:28:40Z,42.805,6.029,13.3054,4.60140,2470.987,2024-4-01T06:31:19Z
2024-04-01T04:31:44Z,42.805,6.029,13.3049,4.60140,2470.987,2024-4-01T06:34:22Z
2024-04-01T04:34:47Z,42.805,6.029,13.3050,4.60139,2470.95,2024-4-01T06:37:25Z
2024-04-01T04:37:50Z,42.805,6.029,13.3046,4.60139,2470.973,2024-4-01T06:40:29Z
2024-04-01T04:40:53Z,42.805,6.029,13.3051,4.60139,2470.973,2024-4-01T06:43:32Z
2024-04-01T04:43:56Z,42.805,6.029,13.3052,4.60140,2470.997,2024-4-01T06:46:35Z
2024-04-01T04:46:59Z,42.805,6.029,13.3051,4.60139,2470.973,2024-4-01T06:49:38Z
2024-04-01T04:50:02Z,42.805,6.029,13.3048,4.60139,2470.997,2024-4-01T06:52:41Z
2024-04-01T04:53:05Z,42.805,6.029,13.3051,4.60139,2470.964,2024-4-01T06:55:44Z
2024-04-01T04:56:08Z,42.805,6.029,13.3054,4.60140,2470.973,2024-4-01T06:58:47Z
2024-04-01T04:59:11Z,42.805,6.029,13.3049,4.60139,2470.95,2024-4-01T07:01:50Z
2024-04-01T05:02:14Z,42.805,6.029,13.3052,4.60139,2470.973,2024-4-01T07:04:53Z
2024-04-01T05:05:17Z,42.805,6.029,13.3048,4.60139,2471.01,2024-4-01T07:07:56Z
2024-04-01T05:08:20Z,42.805,6.029,13.3053,4.60140,2470.973,2024-4-01T07:10:59Z
2024-04-01T05:11:24Z,42.805,6.029,13.3053,4.60138,2470.95,2024-4-01T07:14:02Z
2024-04-01T05:14:27Z,42.805,6.029,13.3051,4.60138,2470.964,2024-4-01T07:17:05Z
2024-04-01T05:17:30Z,42.805,6.029,13.3054,4.60140,2470.95,2024-4-01T07:20:09Z
2024-04-01T05:20:33Z,42.805,6.029,13.3051,4.60138,2470.987,2024-4-01T07:23:12Z
2024-04-01T05:23:36Z,42.805,6.029,13.3053,4.60138,2470.987,2024-4-01T07:26:15Z
2024-04-01T05:26:39Z,42.805,6.029,13.3051,4.60140,2470.973,2024-4-01T07:29:18Z
2024-04-01T05:29:42Z,42.805,6.029,13.3051,4.60140,2470.95,2024-4-01T07:32:21Z
2024-04-01T05:32:45Z,42.805,6.029,13.3057,4.60144,2470.987,2024-4-01T07:35:24Z
2024-04-01T05:35:48Z,42.805,6.029,13.3050,4.60142,2470.95,2024-4-01T07:38:27Z
2024-04-01T05:38:51Z,42.805,6.029,13.3054,4.60140,2470.973,2024-4-01T07:41:30Z
2024-04-01T05:41:54Z,42.805,6.029,13.3051,4.60140,2470.964,2024-4-01T07:44:33Z
2024-04-01T05:44:57Z,42.805,6.029,13.3054,4.60140,2470.987,2024-4-01T07:47:36Z
2024-04-01T05:48:00Z,42.805,6.029,13.3052,4.60140,2470.973,2024-4-01T07:50:39Z
2024-04-01T05:51:03Z,42.805,6.029,13.3053,4.60139,2470.987,2024-4-01T07:53:42Z
2024-04-01T05:54:07Z,42.805,6.029,13.3052,4.60140,2470.973,2024-4-01T07:56:45Z
2024-04-01T05:57:10Z,42.805,6.029,13.3049,4.60139,2470.973,2024-4-01T07:59:49Z
2024-04-01T06:00:13Z,42.805,6.029,13.3050,4.60139,2470.964,2024-4-01T08:02:52Z
2024-04-01T06:03:16Z,42.805,6.029,13.3051,4.60139,2470.964,2024-4-01T08:05:55Z
2024-04-01T06:06:19Z,42.805,6.029,13.3051,4.60140,2470.95,2024-4-01T08:08:58Z
2024-04-01T06:09:22Z,42.805,6.029,13.3050,4.60139,2470.997,2024-4-01T08:12:01Z
2024-04-01T06:12:25Z,42.805,6.029,13.3051,4.60138,2470.95,2024-4-01T08:15:04Z
2024-04-01T06:15:28Z,42.805,6.029,13.3052,4.60139,2470.95,2024-4-01T08:18:07Z
2024-04-01T06:18:31Z,42.805,6.029,13.3051,4.60140,2470.964,2024-4-01T08:21:10Z
2024-04-01T06:21:34Z,42.805,6.029,13.3051,4.60139,2470.95,2024-4-01T08:24:13Z
2024-04-01T06:24:37Z,42.805,6.029,13.3052,4.60139,2470.964,2024-4-01T08:27:16Z
2024-04-01T06:27:40Z,42.805,6.029,13.3053,4.60139,2470.95,2024-4-01T08:30:19Z
2024-04-01T06:30:43Z,42.805,6.029,13.3052,4.60139,2470.973,2024-4-01T08:33:22Z
2024-04-01T06:33:47Z,42.805,6.029,13.3053,4.60140,2470.94,2024-4-01T08:36:25Z
2024-04-01T06:36:50Z,42.805,6.029,13.3056,4.60140,2470.964,2024-4-01T08:39:28Z
2024-04-01T06:39:53Z,42.805,6.029,13.3050,4.60139,2470.927,2024-4-01T08:42:32Z
2024-04-01T06:42:56Z,42.805,6.029,13.3049,4.60142,2470.95,2024-4-01T08:45:35Z
2024-04-01T06:45:59Z,42.805,6.029,13.3051,4.60140,2470.964,2024-4-01T08:48:38Z
2024-04-01T06:49:02Z,42.805,6.029,13.3055,4.60140,2470.964,2024-4-01T08:51:41Z
2024-04-01T06:52:05Z,42.805,6.029,13.3052,4.60141,2470.987,2024-4-01T08:54:44Z
2024-04-01T06:55:08Z,42.805,6.029,13.3052,4.60142,2470.987,2024-4-01T08:57:47Z
2024-04-01T06:58:11Z,42.805,6.029,13.3051,4.60139,2470.95,2024-4-01T09:00:50Z
2024-04-01T07:01:14Z,42.805,6.029,13.3048,4.60140,2470.927,2024-4-01T09:03:53Z
2024-04-01T07:04:17Z,42.805,6.029,13.3052,4.60140,2470.959,2024-4-01T09:06:56Z
2024-04-01T07:07:20Z,42.805,6.029,13.3055,4.60140,2470.964,2024-4-01T09:09:59Z
2024-04-01T07:10:23Z,42.805,6.029,13.3052,4.60139,2470.973,2024-4-01T09:13:02Z
2024-04-01T07:13:27Z,42.805,6.029,13.3049,4.60140,2470.904,2024-4-01T09:16:05Z
2024-04-01T07:16:30Z,42.805,6.029,13.3056,4.60139,2470.973,2024-4-01T09:19:08Z
2024-04-01T07:19:33Z,42.805,6.029,13.3048,4.60139,2470.95,2024-4-01T09:22:12Z
2024-04-01T07:22:36Z,42.805,6.029,13.3051,4.60140,2470.987,2024-4-01T09:25:15Z
2024-04-01T07:25:39Z,42.805,6.029,13.3050,4.60142,2470.94,2024-4-01T09:28:18Z
2024-04-01T07:28:42Z,42.805,6.029,13.3053,4.60140,2470.927,2024-4-01T09:31:21Z
2024-04-01T07:31:45Z,42.805,6.029,13.3055,4.60140,2470.95,2024-4-01T09:34:24Z
2024-04-01T07:34:48Z,42.805,6.029,13.3054,4.60140,2471.01,2024-4-01T09:37:27Z
2024-04-01T07:37:51Z,42.805,6.029,13.3048,4.60140,2471.01,2024-4-01T09:40:30Z
2024-04-01T07:40:54Z,42.805,6.029,13.3053,4.60140,2470.973,2024-4-01T09:43:33Z
2024-04-01T07:43:57Z,42.805,6.029,13.3050,4.60140,2470.987,2024-4-01T09:46:36Z
2024-04-01T07:47:00Z,42.805,6.029,13.3056,4.60141,2471.01,2024-4-01T09:49:39Z
2024-04-01T07:50:03Z,42.805,6.029,13.3053,4.60142,2470.987,2024-4-01T09:52:42Z
2024-04-01T07:53:07Z,42.805,6.029,13.3051,4.60150,2470.973,2024-4-01T09:55:45Z
2024-04-01T07:56:10Z,42.805,6.029,13.3053,4.60142,2470.987,2024-4-01T09:58:49Z
2024-04-01T07:59:13Z,42.805,6.029,13.3053,4.60141,2470.987,2024-4-01T10:01:52Z
2024-04-01T08:02:16Z,42.805,6.029,13.3048,4.60142,2470.983,2024-4-01T10:04:55Z
2024-04-01T08:05:19Z,42.805,6.029,13.3053,4.60140,2470.95,2024-4-01T10:07:58Z
2024-04-01T08:08:22Z,42.805,6.029,13.3054,4.60140,2470.964,2024-4-01T10:11:01Z
2024-04-01T08:11:25Z,42.805,6.029,13.3053,4.60140,2470.987,2024-4-01T10:14:04Z
2024-04-01T08:14:28Z,42.805,6.029,13.3050,4.60142,2470.973,2024-4-01T10:17:07Z
2024-04-01T08:17:31Z,42.805,6.029,13.3052,4.60141,2470.987,2024-4-01T10:20:10Z
2024-04-01T08:20:34Z,42.805,6.029,13.3053,4.60142,2470.973,2024-4-01T10:23:13Z
2024-04-01T08:23:37Z,42.805,6.029,13.3054,4.60143,2470.987,2024-4-01T10:26:16Z
2024-04-01T08:26:40Z,42.805,6.029,13.3053,4.60144,2470.973,2024-4-01T10:29:19Z
2024-04-01T08:29:43Z,42.805,6.029,13.3052,4.60141,2470.95,2024-4-01T10:32:22Z
2024-04-01T08:32:47Z,42.805,6.029,13.3051,4.60142,2470.987,2024-4-01T10:35:25Z
2024-04-01T08:35:50Z,42.805,6.029,13.3054,4.60145,2471.02,2024-4-01T10:38:29Z
2024-04-01T08:38:53Z,42.805,6.029,13.3051,4.60143,2470.973,2024-4-01T10:41:32Z
2024-04-01T08:41:56Z,42.805,6.029,13.3052,4.60143,2471.01,2024-4-01T10:44:35Z
2024-04-01T08:44:59Z,42.805,6.029,13.3054,4.60142,2470.997,2024-4-01T10:47:38Z
2024-04-01T08:48:02Z,42.805,6.029,13.3055,4.60146,2470.973,2024-4-01T10:50:41Z
2024-04-01T08:51:05Z,42.805,6.029,13.3053,4.60144,2470.997,2024-4-01T10:53:44Z
2024-04-01T08:54:08Z,42.805,6.029,13.3049,4.60145,2470.997,2024-4-01T10:56:47Z
2024-04-01T08:57:11Z,42.805,6.029,13.3048,4.60145,2471.034,2024-4-01T10:59:50Z
2024-04-01T09:00:14Z,42.805,6.029,13.3048,4.60143,2470.997,2024-4-01T11:02:53Z
2024-04-01T09:03:17Z,42.805,6.029,13.3053,4.60142,2471.01,2024-4-01T11:05:56Z
2024-04-01T09:06:20Z,42.805,6.029,13.3054,4.60142,2470.997,2024-4-01T11:08:59Z
2024-04-01T09:09:24Z,42.805,6.029,13.3052,4.60142,2471.02,2024-4-01T11:12:02Z
2024-04-01T09:12:27Z,42.805,6.029,13.3053,4.60147,2471.081,2024-4-01T11:15:06Z
2024-04-01T09:15:30Z,42.805,6.029,13.3052,4.60155,2471.043,2024-4-01T11:18:09Z
2024-04-01T09:18:33Z,42.805,6.029,13.3049,4.60145,2471.057,2024-4-01T11:21:12Z
2024-04-01T09:21:36Z,42.805,6.029,13.3055,4.60145,2471.034,2024-4-01T11:24:15Z
2024-04-01T09:24:39Z,42.805,6.029,13.3052,4.60143,2471.081,2024-4-01T11:27:18Z
2024-04-01T09:27:42Z,42.805,6.029,13.3054,4.60145,2471.034,2024-4-01T11:30:21Z
2024-04-01T09:30:45Z,42.805,6.029,13.3058,4.60144,2471.02,2024-4-01T11:33:24Z
2024-04-01T09:33:48Z,42.805,6.029,13.3053,4.60158,2471.057,2024-4-01T11:36:27Z
2024-04-01T09:36:51Z,42.805,6.029,13.3054,4.60153,2471.034,2024-4-01T11:39:30Z
2024-04-01T09:39:54Z,42.805,6.029,13.3054,4.60145,2471.043,2024-4-01T11:42:33Z
2024-04-01T09:42:57Z,42.805,6.029,13.3054,4.60144,2471.043,2024-4-01T11:45:36Z
2024-04-01T09:46:00Z,42.805,6.029,13.3052,4.60144,2471.043,2024-4-01T11:48:39Z
2024-04-01T09:49:04Z,42.805,6.029,13.3050,4.60157,2471.034,2024-4-01T11:51:42Z
2024-04-01T09:52:07Z,42.805,6.029,13.3054,4.60144,2470.997,2024-4-01T11:54:46Z
2024-04-01T09:55:10Z,42.805,6.029,13.3054,4.60147,2471.02,2024-4-01T11:57:49Z
2024-04-01T09:58:13Z,42.805,6.029,13.3053,4.60145,2471.01,2024-4-01T12:00:52Z
2024-04-01T10:01:16Z,42.805,6.029,13.3050,4.60145,2471.034,2024-4-01T12:03:55Z
2024-04-01T10:04:19Z,42.805,6.029,13.3054,4.60146,2471.043,2024-4-01T12:06:58Z
2024-04-01T10:07:22Z,42.805,6.029,13.3053,4.60145,2471.034,2024-4-01T12:10:01Z
2024-04-01T10:10:25Z,42.805,6.029,13.3052,4.60145,2471.043,2024-4-01T12:13:04Z
2024-04-01T10:13:28Z,42.805,6.029,13.3052,4.60147,2471.034,2024-4-01T12:16:07Z
2024-04-01T10:16:31Z,42.805,6.029,13.3055,4.60146,2471.034,2024-4-01T12:19:10Z
2024-04-01T10:19:34Z,42.805,6.029,13.3058,4.60145,2471.057,2024-4-01T12:22:13Z
2024-04-01T10:22:37Z,42.805,6.029,13.3057,4.60145,2471.034,2024-4-01T12:25:16Z
2024-04-01T10:25:41Z,42.805,6.029,13.3053,4.60146,2471.034,2024-4-01T12:28:19Z
2024-04-01T10:28:44Z,42.805,6.029,13.3058,4.60145,2471.034,2024-4-01T12:31:23Z
2024-04-01T10:31:47Z,42.805,6.029,13.3056,4.60145,2471.01,2024-4-01T12:34:26Z
2024-04-01T10:34:50Z,42.805,6.029,13.3051,4.60145,2471.043,2024-4-01T12:37:29Z
2024-04-01T10:37:53Z,42.805,6.029,13.3053,4.60146,2471.01,2024-4-01T12:40:32Z
2024-04-01T10:40:56Z,42.805,6.029,13.3055,4.60145,2470.987,2024-4-01T12:43:35Z
2024-04-01T10:43:59Z,42.805,6.029,13.3054,4.60161,2471.034,2024-4-01T12:46:38Z
2024-04-01T10:47:02Z,42.805,6.029,13.3053,4.60145,2471.01,2024-4-01T12:49:41Z
2024-04-01T10:50:05Z,42.805,6.029,13.3056,4.60146,2471.02,2024-4-01T12:52:44Z
2024-04-01T10:53:08Z,42.805,6.029,13.3054,4.60148,2471.02,2024-4-01T12:55:47Z
2024-04-01T10:56:11Z,42.805,6.029,13.3056,4.60145,2471.02,2024-4-01T12:58:50Z
2024-04-01T10:59:14Z,42.805,6.029,13.3053,4.60152,2471.02,2024-4-01T13:01:53Z
2024-04-01T11:02:17Z,42.805,6.029,13.3054,4.60149,2471.02,2024-4-01T13:04:56Z
2024-04-01T11:05:21Z,42.805,6.029,13.3054,4.60147,2471.02,2024-4-01T13:07:59Z
2024-04-01T11:08:24Z,42.805,6.029,13.3052,4.60151,2470.997,2024-4-01T13:11:03Z
2024-04-01T11:11:27Z,42.805,6.029,13.3056,4.60151,2470.997,2024-4-01T13:14:06Z
2024-04-01T11:14:30Z,42.805,6.029,13.3055,4.60148,2471.02,2024-4-01T13:17:09Z
2024-04-01T11:17:33Z,42.805,6.029,13.3056,4.60148,2470.997,2024-4-01T13:20:12Z
2024-04-01T11:20:36Z,42.805,6.029,13.3058,4.60176,2470.997,2024-4-01T13:23:15Z
2024-04-01T11:23:39Z,42.805,6.029,13.3056,4.60155,2471.034,2024-4-01T13:26:18Z
2024-04-01T11:26:42Z,42.805,6.029,13.3059,4.60152,2470.997,2024-4-01T13:29:21Z
2024-04-01T11:29:45Z,42.805,6.029,13.3056,4.60164,2471.02,2024-4-01T13:32:24Z
2024-04-01T11:32:48Z,42.805,6.029,13.3064,4.60152,2471.02,2024-4-01T13:35:27Z
2024-04-01T11:35:51Z,42.805,6.029,13.3056,4.60151,2471.01,2024-4-01T13:38:30Z
2024-04-01T11:38:54Z,42.805,6.029,13.3054,4.60149,2470.964,2024-4-01T13:41:33Z
2024-04-01T11:41:58Z,42.805,6.029,13.3053,4.60152,2471.02,2024-4-01T13:44:36Z
2024-04-01T11:45:01Z,42.805,6.029,13.3056,4.60152,2470.987,2024-4-01T13:47:40Z
2024-04-01T11:48:04Z,42.805,6.029,13.3056,4.60147,2471.034,2024-4-01T13:50:43Z
2024-04-01T11:51:07Z,42.805,6.029,13.3051,4.60147,2470.997,2024-4-01T13:53:46Z
2024-04-01T11:54:10Z,42.805,6.029,13.3054,4.60147,2470.95,2024-4-01T13:56:49Z
2024-04-01T11:57:13Z,42.805,6.029,13.3056,4.60156,2470.987,2024-4-01T13:59:52Z
2024-04-01T12:00:16Z,42.805,6.029,13.3057,4.60148,2470.987,2024-4-01T14:02:55Z
2024-04-01T12:03:19Z,42.805,6.029,13.3063,4.60148,2471.02,2024-4-01T14:05:58Z
2024-04-01T12:06:22Z,42.805,6.029,13.3061,4.60149,2470.959,2024-4-01T14:09:01Z
2024-04-01T12:09:25Z,42.805,6.029,13.3072,4.60150,2470.997,2024-4-01T14:12:04Z
2024-04-01T12:12:28Z,42.805,6.029,13.3069,4.60151,2471.01,2024-4-01T14:15:07Z
2024-04-01T12:15:31Z,42.805,6.029,13.3062,4.60150,2470.997,2024-4-01T14:18:10Z
2024-04-01T12:18:34Z,42.805,6.029,13.3059,4.60147,2470.997,2024-4-01T14:21:13Z
2024-04-01T12:21:38Z,42.805,6.029,13.3063,4.60147,2470.95,2024-4-01T14:24:17Z
2024-04-01T12:24:41Z,42.805,6.029,13.3061,4.60148,2471.01,2024-4-01T14:27:20Z
2024-04-01T12:27:44Z,42.805,6.029,13.3059,4.60146,2470.973,2024-4-01T14:30:23Z
2024-04-01T12:30:47Z,42.805,6.029,13.3054,4.60146,2471.01,2024-4-01T14:33:26Z
2024-04-01T12:33:50Z,42.805,6.029,13.3058,4.60145,2470.964,2024-4-01T14:36:29Z
2024-04-01T12:36:53Z,42.805,6.029,13.3062,4.60147,2470.973,2024-4-01T14:39:32Z
2024-04-01T12:39:56Z,42.805,6.029,13.3056,4.60150,2471.01,2024-4-01T14:42:35Z
2024-04-01T12:42:59Z,42.805,6.029,13.3056,4.60145,2470.997,2024-4-01T14:45:38Z
2024-04-01T12:46:02Z,42.805,6.029,13.3056,4.60145,2470.973,2024-4-01T14:48:41Z
2024-04-01T12:49:05Z,42.805,6.029,13.3058,4.60147,2470.95,2024-4-01T14:51:44Z
2024-04-01T12:52:08Z,42.805,6.029,13.3058,4.60146,2470.987,2024-4-01T14:54:47Z
2024-04-01T12:55:12Z,42.805,6.029,13.3056,4.60146,2470.973,2024-4-01T14:57:50Z
2024-04-01T12:58:15Z,42.805,6.029,13.3057,4.60145,2470.95,2024-4-01T15:00:54Z
2024-04-01T13:01:18Z,42.805,6.029,13.3059,4.60147,2470.959,2024-4-01T15:03:57Z
2024-04-01T13:04:21Z,42.805,6.029,13.3055,4.60145,2471.01,2024-4-01T15:07:00Z
2024-04-01T13:07:24Z,42.805,6.029,13.3055,4.60145,2470.987,2024-4-01T15:10:03Z
2024-04-01T13:10:27Z,42.805,6.029,13.3058,4.60147,2470.964,2024-4-01T15:13:06Z
2024-04-01T13:13:30Z,42.805,6.029,13.3059,4.60152,2470.95,2024-4-01T15:16:09Z
2024-04-01T13:16:33Z,42.805,6.029,13.3061,4.60146,2470.973,2024-4-01T15:19:12Z
2024-04-01T13:19:36Z,42.805,6.029,13.3060,4.60145,2470.964,2024-4-01T15:22:15Z
2024-04-01T13:22:39Z,42.805,6.029,13.3067,4.60146,2470.973,2024-4-01T15:25:18Z
2024-04-01T13:25:42Z,42.805,6.029,13.3064,4.60146,2470.973,2024-4-01T15:28:21Z
2024-04-01T13:28:45Z,42.805,6.029,13.3061,4.60146,2470.997,2024-4-01T15:31:24Z
2024-04-01T13:31:49Z,42.805,6.029,13.3056,4.60147,2471.02,2024-4-01T15:34:27Z
2024-04-01T13:34:52Z,42.805,6.029,13.3056,4.60144,2470.95,2024-4-01T15:37:31Z
2024-04-01T13:37:55Z,42.805,6.029,13.3056,4.60145,2470.927,2024-4-01T15:40:34Z
2024-04-01T13:40:58Z,42.805,6.029,13.3055,4.60147,2470.987,2024-4-01T15:43:37Z
2024-04-01T13:44:01Z,42.805,6.029,13.3057,4.60155,2470.95,2024-4-01T15:46:40Z
2024-04-01T13:47:04Z,42.805,6.029,13.3057,4.60151,2470.95,2024-4-01T15:49:43Z
2024-04-01T13:50:07Z,42.805,6.029,13.3058,4.60158,2470.95,2024-4-01T15:52:46Z
2024-04-01T13:53:10Z,42.805,6.029,13.3063,4.60145,2470.95,2024-4-01T15:55:49Z
2024-04-01T13:56:13Z,42.805,6.029,13.3059,4.60158,2470.94,2024-4-01T15:58:52Z
2024-04-01T13:59:16Z,42.805,6.029,13.3058,4.60145,2470.964,2024-4-01T16:01:55Z
2024-04-01T14:02:19Z,42.805,6.029,13.3054,4.60146,2470.95,2024-4-01T16:04:58Z
2024-04-01T14:05:22Z,42.805,6.029,13.3056,4.60147,2470.964,2024-4-01T16:08:01Z
2024-04-01T14:08:25Z,42.805,6.029,13.3055,4.60148,2470.964,2024-4-01T16:11:04Z
2024-04-01T14:11:29Z,42.805,6.029,13.3058,4.60149,2470.95,2024-4-01T16:14:07Z
2024-04-01T14:14:32Z,42.805,6.029,13.3056,4.60145,2470.964,2024-4-01T16:17:11Z
2024-04-01T14:17:35Z,42.805,6.029,13.3065,4.60145,2470.95,2024-4-01T16:20:14Z
2024-04-01T14:20:38Z,42.805,6.029,13.3058,4.60155,2470.904,2024-4-01T16:23:17Z
2024-04-01T14:23:41Z,42.805,6.029,13.3058,4.60155,2470.964,2024-4-01T16:26:20Z
2024-04-01T14:26:44Z,42.805,6.029,13.3056,4.60147,2470.964,2024-4-01T16:29:23Z
2024-04-01T14:29:47Z,42.805,6.029,13.3061,4.60145,2470.95,2024-4-01T16:32:26Z
2024-04-01T14:32:50Z,42.805,6.029,13.3056,4.60145,2470.927,2024-4-01T16:35:29Z
2024-04-01T14:35:53Z,42.805,6.029,13.3058,4.60145,2470.964,2024-4-01T16:38:32Z
2024-04-01T14:38:56Z,42.805,6.029,13.3058,4.60145,2470.927,2024-4-01T16:41:35Z
2024-04-01T14:41:59Z,42.805,6.029,13.3057,4.60145,2470.94,2024-4-01T16:44:38Z
2024-04-01T14:45:02Z,42.805,6.029,13.3055,4.60145,2470.917,2024-4-01T16:47:41Z
2024-04-01T14:48:06Z,42.805,6.029,13.3056,4.60146,2470.88,2024-4-01T16:50:45Z
2024-04-01T14:51:09Z,42.805,6.029,13.3058,4.60147,2470.927,2024-4-01T16:53:48Z
2024-04-01T14:54:12Z,42.805,6.029,13.3056,4.60150,2470.964,2024-4-01T16:56:51Z
2024-04-01T14:57:15Z,42.805,6.029,13.3054,4.60148,2470.904,2024-4-01T16:59:54Z
2024-04-01T15:00:18Z,42.805,6.029,13.3055,4.60162,2470.973,2024-4-01T17:02:57Z
2024-04-01T15:03:21Z,42.805,6.029,13.3054,4.60145,2470.927,2024-4-01T17:06:00Z
2024-04-01T15:06:24Z,42.805,6.029,13.3052,4.60144,2470.927,2024-4-01T17:09:03Z
2024-04-01T15:09:27Z,42.805,6.029,13.3052,4.60144,2470.95,2024-4-01T17:12:06Z
2024-04-01T15:12:30Z,42.805,6.029,13.3052,4.60145,2470.927,2024-4-01T17:15:09Z